This demonstration page uses our WeatherBlox Daily Observations layout. Learn more.

Left ArrowRight Arrow

38.20091, -84.87328

Hourly Observations for January 26, 2015

Temp ( °F °C ) Dew Point ( °F °C ) Humidity (%) Winds ( mph kmh ) Pressure ( in mb ) Visibility ( mi km ) Precip ( " mm )
12:53 am 00:53 Cloudy with Mist and Fog 38 3.3 37 2.8 97 97 NNW 12 19 29.66 1004 5 8 0.00 0.00
1:53 am 01:53 Cloudy 35 1.7 33 0.6 93 93 NNW 16 26 29.69 1005 8 13 0.00 0.00
2:34 am 02:34 Cloudy 32 0 30 -1.1 92 92 N 14 22 29.74 1007 10 16 0.00 0.00
2:53 am 02:53 Cloudy 31 -0.6 28 -2.2 89 89 NNW 15 24 29.73 1007 9 14 0.00 0.00
3:25 am 03:25 Cloudy with Light Snow 30 -1.1 27 -2.8 88 88 NNW 15 24 29.77 1008 6 10 0.00 0.03
3:53 am 03:53 Cloudy with Mist and Fog 29 -1.7 26 -3.3 89 89 NNW 10 17 29.75 1007 6 10 0.00 0.03
4:44 am 04:44 Cloudy 27 -2.8 23 -5 85 85 NW 13 20 29.83 1010 10 16 0.00 0.00
4:53 am 04:53 Cloudy 27 -2.8 23 -5 85 85 NNW 13 20 29.78 1009 10 16 0.00 0.00
5:53 am 05:53 Cloudy 26 -3.3 21 -6.1 81 81 N 14 22 29.81 1010 10 16 0.00 0.00
6:53 am 06:53 Cloudy 25 -3.9 20 -6.7 81 81 NNW 13 20 29.84 1011 10 16 0.00 0.00
7:53 am 07:53 Cloudy 24 -4.4 19 -7.2 81 81 NW 10 17 29.88 1012 10 16 0.00 0.00
8:53 am 08:53 Cloudy 23 -5 18 -7.8 81 81 NW 13 20 29.90 1012 10 16 0.00 0.00
9:53 am 09:53 Cloudy 24 -4.4 18 -7.8 77 77 WNW 8 13 29.92 1013 10 16 0.00 0.00
10:53 am 10:53 Cloudy 25 -3.9 19 -7.2 78 78 WNW 9 15 29.95 1014 10 16 0.00 0.00
11:44 am 11:44 Cloudy 26 -3.3 20 -6.7 78 78 WNW 7 11 30.00 1016 10 16 0.00 0.00
11:53 am 11:53 Cloudy 27 -2.8 20 -6.7 75 75 NW 9 15 29.94 1014 10 16 0.00 0.00
12:08 pm 12:08 Cloudy 27 -2.8 20 -6.7 75 75 NW 7 11 29.97 1015 10 16 0.00 0.00
12:53 pm 12:53 Cloudy 27 -2.8 20 -6.7 75 75 WNW 10 17 29.93 1014 10 16 0.00 0.00
1:53 pm 13:53 Cloudy 28 -2.2 21 -6.1 75 75 WNW 8 13 29.92 1013 10 16 0.00 0.00
2:53 pm 14:53 Cloudy 28 -2.2 21 -6.1 75 75 WNW 10 17 29.91 1013 10 16 0.00 0.00
3:53 pm 15:53 Cloudy 29 -1.7 20 -6.7 69 69 NW 9 15 29.92 1013 10 16 0.00 0.00
4:53 pm 16:53 Cloudy 30 -1.1 20 -6.7 66 66 WNW 6 9 29.93 1014 10 16 0.00 0.00
5:53 pm 17:53 Cloudy 29 -1.7 20 -6.7 69 69 WNW 5 7 29.94 1014 10 16 0.00 0.00
6:53 pm 18:53 Cloudy 29 -1.7 21 -6.1 72 72 W 3 6 29.96 1015 10 16 0.00 0.00
7:53 pm 19:53 Cloudy 29 -1.7 21 -6.1 72 72 Calm 29.96 1014 10 16 0.00 0.00
8:53 pm 20:53 Cloudy 28 -2.2 23 -5 81 81 Calm 29.96 1015 10 16 0.00 0.00
9:53 pm 21:53 Cloudy 29 -1.7 22 -5.6 75 75 S 5 7 29.96 1014 10 16 0.00 0.00
10:53 pm 22:53 Cloudy 29 -1.7 22 -5.6 75 75 S 3 6 29.95 1014 10 16 0.00 0.00
11:53 pm 23:53 Cloudy 29 -1.7 22 -5.6 75 75 SSW 3 6 29.95 1014 10 16 0.00 0.00

Powered by AerisWeather